{"data":{"norad_id":63841,"intl_designator":"2025-093F","name":"STARLINK-34056","alt_names":[],"object_type":"PAYLOAD","status":"ACTIVE","operator":null,"country":"US","launch_date":"2025-05-07","launch_site_code":"AFETR","launch_vehicle":null,"mission":null,"orbit_class":"UNKNOWN","rcs_meters":null,"size_class":null,"mass_kg":null,"dimensions":null,"purposes":["comms"],"wikipedia_slug":null,"has_3d_model":false,"image_url":null,"decayed_at":null,"tle_current":{"epoch":"2026-09-19T18:46:23.877984Z","epoch_age_seconds":211912,"freshness":"STALE","line1":"1 63841U 25093F   26262.78222081  .00011389  00000+0  42229-3 0  9992","line2":"2 63841  43.0028  61.9830 0002673 287.4143  72.6417 15.27614517 77432","mean_motion":15.27614517,"eccentricity":0.0002673,"inclination_deg":43.0028,"raan_deg":61.983,"arg_perigee_deg":287.4143,"mean_anomaly_deg":72.6417,"bstar":0.00042229,"rev_number":7743,"period_min":94.264618722526,"perigee_km":481.11177425353,"apogee_km":484.77970908722,"semimajor_km":6861.0827416704,"source":"CELESTRAK","updated_at":"2026-09-21T09:00:35.131917Z"}}}